Enid, OK

7:53 PM CDT on August 26, 2016 (GMT -0500)
Vance Air Force Base

Weather History for KEND - May, 2013

Change the Weather History Date:

Sunday, May 5, 2013

  Actual Average Record
Temperature  
Mean Temperature 53 °F -  
Max Temperature 64 °F 75 °F 98 °F (2014)
Min Temperature 43 °F 54 °F 43 °F (2013)
Degree Days  
Heating Degree Days 12    
Growing Degree Days 3 (Base 50)    
Moisture  
Dew Point 45 °F    
Average Humidity 81    
Maximum Humidity 99    
Minimum Humidity 59    
Precipitation  
Precipitation 0.00 in - - ()
Sea Level Pressure  
Sea Level Pressure 30.13 in    
Wind  
Wind Speed 12 mph (North)    
Max Wind Speed 17 mph    
Max Gust Speed 18 mph    
Visibility 10 miles    
Events      
Averages and records for this station are not official NWS values.
T = Trace of Precipitation, MM = Missing Value Source: NWS Daily Summary

Daily Weather History Graph

Daily Weather History Graph

Search for Another Location

Airport or City:

Trip Planner

Search our weather history database for the weather conditions in past years. The results will help you decide how hot, cold, wet, or windy it might be!

Date:

Astronomy

May. 05, 2013 Rise Set
Actual Time 6:33 AM CDT 8:23 PM CDT
Civil Twilight 6:06 AM CDT 8:51 PM CDT
Nautical Twilight 5:32 AM CDT 9:25 PM CDT
Astronomical Twilight 4:56 AM CDT 10:01 PM CDT
Moon 3:57 AM CDT (5/5) 4:30 PM CDT (5/5)
Length of Visible Light 14h 45m
Length of Day
13h 49m
Waning Crescent, 18% of the Moon is Illuminated
May 5
Waning Crescent
May 9
New
May 17
First Quarter
May 24
Full
May 31
Last Quarter

Hourly Weather History & Observations

Time (CDT) Temp. Windchill Dew Point Humidity Pressure Visibility Wind Dir Wind Speed Gust Speed Precip Events Conditions
12:03 AM 46.4 °F 40.7 °F 41.0 °F 81% 30.09 in 10.0 mi North 12.7 mph - N/A   Overcast
12:58 AM 45.7 °F 39.8 °F 42.3 °F 88% 30.11 in 10.0 mi North 12.7 mph - N/A   Overcast
1:58 AM 45.1 °F 39.5 °F 42.6 °F 91% 30.12 in 10.0 mi North 11.5 mph - N/A   Overcast
2:58 AM 45.1 °F 38.8 °F 42.6 °F 91% 30.12 in 10.0 mi North 13.8 mph - N/A   Overcast
3:03 AM 44.6 °F 38.1 °F 42.8 °F 93% 30.10 in 10.0 mi North 13.8 mph - N/A   Overcast
3:43 AM 44.6 °F 39.2 °F 42.8 °F 93% 30.11 in 10.0 mi North 10.4 mph - N/A   Overcast
3:58 AM 45.0 °F 39.7 °F 42.4 °F 91% 30.11 in 10.0 mi North 10.4 mph - N/A   Overcast
4:03 AM 44.6 °F 38.8 °F 42.8 °F 93% 30.11 in 10.0 mi North 11.5 mph - N/A   Mostly Cloudy
4:58 AM 45.1 °F 37.9 °F 41.9 °F 88% 30.12 in 10.0 mi NNW 17.3 mph - N/A   Overcast
5:58 AM 44.4 °F 38.2 °F 42.3 °F 92% 30.13 in 10.0 mi NNW 12.7 mph - N/A   Overcast
6:18 AM 44.6 °F 37.8 °F 42.8 °F 93% 30.12 in 10.0 mi NNW 15.0 mph - N/A   Mostly Cloudy
6:58 AM 43.9 °F 38.3 °F 43.0 °F 97% 30.13 in 10.0 mi NNW 10.4 mph - N/A   Overcast
7:58 AM 46.0 °F 39.6 °F 42.8 °F 88% 30.17 in 10.0 mi NNW 15.0 mph - N/A   Overcast
8:58 AM 47.7 °F - 43.3 °F 85% 30.17 in 10.0 mi North 15.0 mph - N/A   Overcast
9:58 AM 50.2 °F - 44.1 °F 79% 30.18 in 10.0 mi NNW 13.8 mph - N/A   Overcast
10:58 AM 53.4 °F - 45.0 °F 73% 30.18 in 10.0 mi North 15.0 mph - N/A   Mostly Cloudy
11:08 AM 53.6 °F - 44.6 °F 72% 30.17 in 10.0 mi NNW 16.1 mph - N/A   Mostly Cloudy
11:13 AM 53.6 °F - 44.6 °F 72% 30.17 in 10.0 mi NW 12.7 mph - N/A   Mostly Cloudy
11:58 AM 56.5 °F - 46.0 °F 68% 30.18 in 10.0 mi NNW 15.0 mph 18.4 mph N/A   Mostly Cloudy
12:55 PM 59.0 °F - 48.2 °F 67% 30.16 in 10.0 mi NW 8.1 mph - N/A   Mostly Cloudy
1:55 PM 60.8 °F - 46.4 °F 59% 30.14 in 10.0 mi NW 11.5 mph - N/A   Mostly Cloudy
2:55 PM 62.6 °F - 48.2 °F 59% 30.13 in 10.0 mi NW 9.2 mph - N/A   Mostly Cloudy
3:55 PM 62.6 °F - 48.2 °F 59% 30.10 in 10.0 mi NNW 11.5 mph 17.3 mph N/A   Mostly Cloudy
4:55 PM 62.6 °F - 50.0 °F 63% 30.09 in 10.0 mi WNW 9.2 mph - N/A   Mostly Cloudy
5:55 PM 62.6 °F - 50.0 °F 63% 30.09 in 10.0 mi NW 6.9 mph - N/A   Mostly Cloudy
6:58 PM 63.7 °F - 48.9 °F 59% 30.08 in 10.0 mi ENE 6.9 mph - N/A   Mostly Cloudy
8:58 PM 56.1 °F - 51.1 °F 83% 30.10 in 10.0 mi SSE 3.5 mph - N/A   Clear
9:58 PM 52.2 °F - 50.7 °F 95% 30.11 in 10.0 mi East 3.5 mph - N/A   Clear
10:58 PM 52.3 °F - 52.2 °F 99% 30.12 in 10.0 mi East 4.6 mph - N/A   Clear
11:58 PM 48.6 °F - 48.4 °F 99% 30.11 in 10.0 mi East 5.8 mph - N/A   Clear